• en France
  • Liste des pays
  • À 7 jours
  • Température de l'eau
  • Carte satellitaire
  • Carte météo
  • Widgets météo
  • user-avatar
    Se connecter

    Météo par heure à Maloszyna

    Ce jour, 17 Août, Vendredi

    Heure Température Précipitation Vent Pression Humidité
    00:00 +20°C° 0 mm 3 m/s 752 mmHg 62%
    01:00 +19°C° 0 mm 3 m/s 752 mmHg 63%
    02:00 +19°C° 0 mm 3 m/s 752 mmHg 66%
    03:00 +19°C° 0 mm 3 m/s 752 mmHg 69%
    04:00 +18°C° 0 mm 3 m/s 752 mmHg 73%
    05:00 +19°C° 0 mm 3 m/s 752 mmHg 72%
    06:00 +20°C° 0 mm 3 m/s 752 mmHg 71%
    07:00 +21°C° 0 mm 3 m/s 752 mmHg 71%
    08:00 +24°C° 0,1 mm 3 m/s 752 mmHg 65%
    09:00 +26°C° 0,1 mm 4 m/s 752 mmHg 59%
    10:00 +27°C° 0,1 mm 4 m/s 752 mmHg 53%
    11:00 +28°C° 0 mm 3 m/s 751 mmHg 51%
    12:00 +28°C° 0 mm 3 m/s 751 mmHg 48%
    13:00 +29°C° 0 mm 3 m/s 751 mmHg 46%
    14:00 +29°C° 0 mm 2 m/s 751 mmHg 46%
    15:00 +29°C° 0 mm 2 m/s 751 mmHg 45%
    16:00 +29°C° 0 mm 2 m/s 750 mmHg 45%
    17:00 +28°C° 0 mm 2 m/s 750 mmHg 49%
    18:00 +26°C° 0 mm 2 m/s 750 mmHg 54%
    19:00 +25°C° 0 mm 2 m/s 750 mmHg 58%
    20:00 +24°C° 0 mm 2 m/s 751 mmHg 61%
    21:00 +24°C° 0 mm 2 m/s 751 mmHg 63%
    22:00 +23°C° 0 mm 2 m/s 751 mmHg 65%
    23:00 +21°C° 0 mm 2 m/s 751 mmHg 68%

    Demain, 18 Août, Samedi

    Heure Température Précipitation Vent Pression Humidité
    00:00 +21°C° 0 mm 2 m/s 751 mmHg 70%
    01:00 +21°C° 0 mm 2 m/s 751 mmHg 72%
    02:00 +20°C° 0 mm 2 m/s 751 mmHg 73%
    03:00 +21°C° 0 mm 1 m/s 751 mmHg 74%
    04:00 +21°C° 0 mm 1 m/s 752 mmHg 76%
    05:00 +22°C° 0 mm 1 m/s 752 mmHg 73%
    06:00 +23°C° 0 mm 1 m/s 752 mmHg 69%
    07:00 +24°C° 0 mm 1 m/s 752 mmHg 66%
    08:00 +25°C° 0 mm 1 m/s 753 mmHg 62%
    09:00 +26°C° 0 mm 1 m/s 753 mmHg 57%
    10:00 +28°C° 0 mm 1 m/s 753 mmHg 52%
    11:00 +29°C° 0 mm 1 m/s 753 mmHg 49%
    12:00 +29°C° 0 mm 1 m/s 753 mmHg 46%
    13:00 +30°C° 0 mm 2 m/s 753 mmHg 42%
    14:00 +30°C° 0 mm 2 m/s 753 mmHg 43%
    15:00 +30°C° 0 mm 2 m/s 753 mmHg 45%
    16:00 +29°C° 0 mm 2 m/s 753 mmHg 46%
    17:00 +28°C° 0 mm 2 m/s 753 mmHg 50%
    18:00 +27°C° 0 mm 2 m/s 753 mmHg 55%
    19:00 +26°C° 0 mm 2 m/s 753 mmHg 59%
    20:00 +25°C° 0 mm 2 m/s 753 mmHg 62%
    21:00 +24°C° 0 mm 2 m/s 754 mmHg 64%
    22:00 +23°C° 0 mm 2 m/s 754 mmHg 67%
    23:00 +21°C° 0 mm 2 m/s 754 mmHg 71%

    Après-demain, 19 Août, Dimanche

    Heure Température Précipitation Vent Pression Humidité
    00:00 +20°C° 0 mm 2 m/s 754 mmHg 75%
    01:00 +20°C° 0 mm 2 m/s 754 mmHg 79%
    02:00 +19°C° 0 mm 2 m/s 754 mmHg 82%
    03:00 +19°C° 0 mm 2 m/s 754 mmHg 86%
    04:00 +18°C° 0 mm 2 m/s 754 mmHg 89%
    05:00 +20°C° 0 mm 1 m/s 754 mmHg 85%
    06:00 +21°C° 0 mm 1 m/s 754 mmHg 81%
    07:00 +22°C° 0 mm 1 m/s 755 mmHg 77%
    08:00 +24°C° 0 mm 1 m/s 755 mmHg 67%
    09:00 +25°C° 0 mm 2 m/s 755 mmHg 58%
    10:00 +27°C° 0 mm 2 m/s 755 mmHg 49%
    11:00 +27°C° 0 mm 2 m/s 754 mmHg 45%
    12:00 +28°C° 0 mm 2 m/s 754 mmHg 42%
    13:00 +29°C° 0 mm 2 m/s 754 mmHg 38%
    14:00 +29°C° 0 mm 2 m/s 754 mmHg 38%
    15:00 +29°C° 0 mm 2 m/s 753 mmHg 37%
    16:00 +29°C° 0 mm 1 m/s 753 mmHg 36%
    17:00 +28°C° 0 mm 1 m/s 753 mmHg 40%
    18:00 +26°C° 0 mm 1 m/s 753 mmHg 43%
    19:00 +25°C° 0 mm 1 m/s 753 mmHg 47%
    20:00 +24°C° 0 mm 1 m/s 753 mmHg 48%
    21:00 +23°C° 0 mm 1 m/s 753 mmHg 50%
    22:00 +23°C° 0 mm 2 m/s 753 mmHg 52%
    23:00 +21°C° 0 mm 2 m/s 753 mmHg 54%

    20 Août, Lundi

    Heure Température Précipitation Vent Pression Humidité
    00:00 +21°C° 0 mm 2 m/s 753 mmHg 56%
    01:00 +20°C° 0 mm 2 m/s 753 mmHg 58%
    02:00 +20°C° 0 mm 2 m/s 753 mmHg 60%
    03:00 +20°C° 0 mm 2 m/s 753 mmHg 62%
    04:00 +19°C° 0 mm 2 m/s 752 mmHg 65%
    05:00 +20°C° 0 mm 2 m/s 753 mmHg 63%
    06:00 +23°C° 0 mm 2 m/s 753 mmHg 62%
    07:00 +24°C° 0 mm 2 m/s 753 mmHg 61%
    08:00 +25°C° 0 mm 2 m/s 753 mmHg 56%
    09:00 +27°C° 0 mm 2 m/s 752 mmHg 51%
    10:00 +29°C° 0 mm 2 m/s 752 mmHg 46%
    11:00 +29°C° 0 mm 2 m/s 752 mmHg 44%
    12:00 +30°C° 0 mm 2 m/s 752 mmHg 42%
    13:00 +30°C° 0 mm 2 m/s 751 mmHg 40%
    14:00 +30°C° 0 mm 2 m/s 751 mmHg 39%
    15:00 +31°C° 0 mm 2 m/s 751 mmHg 38%
    16:00 +31°C° 0 mm 2 m/s 751 mmHg 37%
    17:00 +29°C° 0 mm 1 m/s 751 mmHg 41%
    18:00 +28°C° 0 mm 1 m/s 750 mmHg 45%
    19:00 +25°C° 0 mm 0 m/s 750 mmHg 48%
    20:00 +26°C° 0 mm 1 m/s 750 mmHg 50%
    21:00 +25°C° 0 mm 1 m/s 751 mmHg 51%
    22:00 +25°C° 0 mm 1 m/s 751 mmHg 52%
    23:00 +24°C° 0 mm 2 m/s 751 mmHg 53%

    21 Août, Mardi

    Heure Température Précipitation Vent Pression Humidité
    00:00 +24°C° 0 mm 2 m/s 750 mmHg 55%
    01:00 +24°C° 0 mm 2 m/s 750 mmHg 56%
    02:00 +23°C° 0 mm 2 m/s 750 mmHg 58%
    03:00 +23°C° 0 mm 2 m/s 750 mmHg 60%
    04:00 +21°C° 0 mm 2 m/s 750 mmHg 62%
    05:00 +23°C° 0 mm 2 m/s 751 mmHg 62%
    06:00 +22°C° 0 mm 3 m/s 751 mmHg 62%
    07:00 +24°C° 0 mm 3 m/s 751 mmHg 62%
    08:00 +25°C° 0 mm 3 m/s 751 mmHg 58%
    09:00 +27°C° 0 mm 4 m/s 751 mmHg 55%
    10:00 +28°C° 0 mm 4 m/s 752 mmHg 52%
    11:00 +29°C° 0 mm 5 m/s 751 mmHg 50%
    12:00 +29°C° 0 mm 5 m/s 751 mmHg 48%
    13:00 +30°C° 0 mm 5 m/s 751 mmHg 46%
    14:00 +29°C° 0 mm 5 m/s 751 mmHg 46%
    15:00 +29°C° 0 mm 5 m/s 751 mmHg 47%
    16:00 +29°C° 0 mm 5 m/s 751 mmHg 48%
    17:00 +27°C° 0 mm 4 m/s 751 mmHg 51%
    18:00 +26°C° 0 mm 3 m/s 751 mmHg 55%
    19:00 +24°C° 0 mm 2 m/s 752 mmHg 59%
    20:00 +23°C° 0 mm 2 m/s 752 mmHg 61%
    21:00 +21°C° 0 mm 2 m/s 752 mmHg 62%
    22:00 +20°C° 0 mm 2 m/s 752 mmHg 64%
    23:00 +20°C° 0 mm 2 m/s 753 mmHg 64%

    22 Août, Mercredi

    Heure Température Précipitation Vent Pression Humidité
    00:00 +20°C° 0 mm 1 m/s 753 mmHg 64%
    01:00 +19°C° 0 mm 1 m/s 753 mmHg 64%
    02:00 +19°C° 0 mm 1 m/s 753 mmHg 64%
    03:00 +19°C° 0 mm 1 m/s 753 mmHg 64%
    04:00 +19°C° 0 mm 1 m/s 753 mmHg 64%
    05:00 +20°C° 0 mm 1 m/s 753 mmHg 62%
    06:00 +21°C° 0 mm 1 m/s 753 mmHg 60%
    07:00 +22°C° 0 mm 1 m/s 753 mmHg 58%
    08:00 +24°C° 0 mm 2 m/s 753 mmHg 54%
    09:00 +25°C° 0 mm 2 m/s 753 mmHg 50%
    10:00 +27°C° 0 mm 2 m/s 753 mmHg 46%
    11:00 +28°C° 0 mm 2 m/s 752 mmHg 43%
    12:00 +29°C° 0 mm 2 m/s 752 mmHg 41%
    13:00 +30°C° 0 mm 2 m/s 752 mmHg 39%
    14:00 +30°C° 0 mm 2 m/s 752 mmHg 38%
    15:00 +30°C° 0 mm 2 m/s 751 mmHg 38%
    16:00 +30°C° 0 mm 2 m/s 751 mmHg 38%
    17:00 +28°C° 0 mm 2 m/s 751 mmHg 42%
    18:00 +27°C° 0 mm 2 m/s 751 mmHg 47%
    19:00 +25°C° 0 mm 1 m/s 751 mmHg 51%
    20:00 +24°C° 0 mm 1 m/s 751 mmHg 55%
    21:00 +24°C° 0 mm 1 m/s 752 mmHg 58%
    22:00 +23°C° 0 mm 1 m/s 752 mmHg 61%
    23:00 +22°C° 0 mm 1 m/s 752 mmHg 65%
    Voir plus